SL-14 DEB, 45298

Orbit data source: Space-Track

SL-14 DEB, 45298 is space debris in LEO originally from a launch on Thu, 15 Aug 1991 UTC launched from the Plesetsk Missile And Space Complex (PKMTR). Debris objects in space refer to the collection of defunct objects orbiting the Earth. Examples of debris include non-operational satellites, rocket bodies, and fragments generated from explosions, collisions, or faulty payload assembly.

Loading next visibility...
Identifier
45298, 1991-056AL
Orbit
LEO
Country
Flag of CISCIS
Related business
Manufacturer
Unknown
Mission
Spacecraft
Bus & Motor
Unknown
Mass
Unknown
Launch date (UTC)
1991-08-15 (34 years ago)
Launch vehicle
Unknown
Launch site
Plesetsk Missile And Space Complex (PKMTR)
Object type
Payload
Rocket body
Debris
Shape & HBR
Unknown shape, 0.3 m
Radar Cross Section
Medium (>0.1 m² and <1 m²)

Expand to show TLE details & history
Last TLE update: 10 hours ago

TLE from 10 hours ago
0 SL-14 DEB
1 45298U 91056AL  25291.90470553  .00007552  00000-0  85074-2 0  9996
2 45298  82.5866 219.3933 0177060 346.8545  12.8018 13.64078341279017
Epoch: 2025-10-18T21:42Z
TLE epoch observation values (Epoch: 2025-10-18T21:42:46.557Z)
Latitude
-0.00008°
Longitude
-133.92972°
Altitude
896.125 km
Speed
7.468 km/s
True Right ascension
14h 37m 34s
True Declination
0° 00' 00"
Sunlit
Object was in daylight at epoch
Visualization orbit readout
Latitude
Unknown
Longitude
Unknown
Altitude
Unknown
Speed
Unknown
Apparent Right ascension
Unknown
Apparent Declination
Unknown
Sunlit
N/A
Visualization observer readout
Local Sidereal Time
02:56:47
Azimuth
Unknown
Elevation
Unknown
Doppler factor
Unknown
Orbital elements
Apogee altitude
1,149.041 km
Perigee altitude
887.126 km
Semi-major axis
7,396.221 km
Eccentricity
0.01771
Inclination
82.5866°
RAAN
219.3933°
Arg. of periapsis
346.8545°
True anomaly
13.26128°
Mean anomaly
12.8018°
Eccentric anomaly
13.03053°
Mean motion
3.41215 °/min
Orbital period
105.51 mins
BSTAR
0.0085074
Loading maneuver chart data...
Computing Atmospheric mass density...
Loading historical data...
Loading historical data...
Loading historical data...
Loading historical data...
Loading historical data...
Loading historical data...
Loading historical data...

Documentation

Showing up to 5 results
|